Location: Huberhof
(49.2050°N, 7.4980°E)
Time: 01:16:18
(UTC+00:00)

Cosmos 2369 - Pass Details

Date: 29 October 2020
Orbit: 840 x 854 km, 71.0° (Epoch: 26 November)

Event Time Altitude Azimuth Distance (km) Brightness Sun altitude
Rises 18:27:32 0° 207° (SSW) 3,410 7.1 -22.4°
Reaches altitude 10° 18:29:59 10° 208° (SSW) 2,477 6.4 -22.8°
Maximum altitude 18:35:41 87° 295° (WNW) 859 3.6 -23.7°
Enters shadow 18:39:13 25° 27° (NNE) 1,676 5.0 -24.3°
